Regional Weather Roundup
Issued by NWS Nashville, TN

Home | Current Version | Previous Version | Text Only | Print | Product List | Glossary On
Versions: 1 2 3 4 5 6 7 8 9 10 11 12 13 14 15 16 17 18 19 20 21 22 23 24 25 26 27 28 29 30 31 32 33 34 35 36 37 38 39 40 41 42 43 44 45 46 47 48 49 50
000
ASUS44 KOHX 270010
RWROHX
MIDDLE TENNESSEE HOURLY WEATHER ROUNDUP
NATIONAL WEATHER SERVICE NASHVILLE TN
600 PM CST SUN FEB 26 2017

NOTE: "FAIR" INDICATES FEW OR NO CLOUDS BELOW 12,000 FEET WITH
NO SIGNIFICANT WEATHER AND/OR OBSTRUCTIONS TO VISIBILITY.

* THESE REPORTS ARE NOT UNDER NWS QUALITY CONTROL AND MAY NOT
  REPORT WEATHER SUCH AS PRECIPITATION AND FOG.


TNZ005>011-023>034-057-059-062>066-078-080-270100
...NORTHERN MIDDLE TENNESSEE...

CITY           SKY/WX    TMP DP  RH WIND       PRES   REMARKS
CLARKSVILLE    CLEAR     50  16  25 S3        30.13R
CROSSVILLE     CLEAR     44  18  35 S5        30.18R
GALLATIN       CLEAR     50  19  29 S3        30.17F
DICKSON        CLOUDY    51  16  25 CALM      30.12R
NASHVILLE      CLOUDY    51  19  28 SE5       30.14F
PORTLAND       PTCLDY    50  18  27 S3        30.15R
SMYRNA         PTCLDY    53  21  28 E5        30.15F
SPARTA         CLEAR     45  25  45 S5        30.15R
SPRINGFIELD    CLEAR     50  18  27 CALM      30.13R
WEST NASHVILLE CLEAR     52  16  24 SE5       30.14F
$$
TNZ056-058-060-061-075>077-079-093>097-270100
...SOUTHERN MIDDLE TENNESSEE...

CITY           SKY/WX    TMP DP  RH WIND       PRES   REMARKS
COLUMBIA       PTCLDY    54  19  26 SE5       30.11S
FAYETTEVILLE   MOCLDY    52  27  37 SE7       30.14F
LEWISBURG      PTCLDY    52  21  29 S5        30.13
MCMINNVILLE    CLEAR     52  21  30 S3        30.15F
SHELBYVILLE    CLEAR     52  27  37 S6        30.16S
TULLAHOMA      CLEAR     52  16  24 S5        30.15F
WINCHESTER     CLEAR     48  23  37 SE6       30.17S
$$


...KEY TO REMARKS...
VSB - VISIBILITY IN MILES
WCI - WIND CHILL INDEX
HX  - HEAT INDEX




USA.gov is the U.S. government's official web portal to all federal, state and local government web resources and services.